Location: Namasale
(1.5000°N, 32.6167°E)
Time: 09:23:29
(UTC+00:00)

Vanguard 1 Rocket - Pass Details

Date: 20 April 2021
Orbit: 652 x 4225 km, 34.3° (Epoch: 15 May)

Event Time Altitude Azimuth Distance (km) Brightness Sun altitude
Rises 10:09:00 0° 274° (W) 5,351 11.4 78.6°
Reaches altitude 10° 10:17:55 10° 315° (NW) 3,207 10.5 77.5°
Maximum altitude 10:18:21 10° 318° (NW) 3,150 10.5 77.4°
Drops below altitude 10° 10:18:45 10° 322° (NW) 3,103 10.5 77.4°
Sets 10:24:46 0° 10° (N) 3,377 10.5 76.4°
